Location: Cheyres
(46.8153°N, 6.7877°E)
Time: 22:00:01
(UTC+00:00)

QB50P2 - Pass Details

Date: 04 July 2022
Orbit: 590 x 605 km, 97.9° (Epoch: 07 August)

Event Time Altitude Azimuth Distance (km) Brightness Sun altitude
Rises 02:12:44 0° 360° (N) 2,862 ? -12.0°
Reaches altitude 10° 02:15:22 10° 343° (NNW) 1,956 ? -11.7°
Maximum altitude 02:18:25 20° 297° (WNW) 1,428 ? -11.4°
Enters shadow 02:21:19 11° 252° (WSW) 1,908 ? -11.1°
